GW2358 Weather Reports


Display with metric or nautical units.
time (UTC)temp
F
wind
direction
speed
MPH
gust
MPH
rain 1hr
in
rain 24hr
in
rain mn
in
humidity
%
barometer
mb
20240226054144 35 224 4.0 13.0 0.00 0.00 0.00 59 1016.5
20240226053644 35 217 6.0 14.0 0.00 0.00 0.00 59 1016.9
20240226053142 35 229 4.0 10.0 0.00 0.00 0.00 59 1016.8
20240226052640 35 241 6.0 15.0 0.00 0.00 0.00 58 1016.8
20240226052138 35 268 5.0 16.0 0.00 0.00 0.00 58 1016.5
20240226051637 35 247 2.0 12.0 0.00 0.00 0.00 58 1016.5
20240226051135 35 236 5.0 10.0 0.00 0.00 0.00 57 1016.5
20240226050635 35 245 6.0 15.0 0.00 0.00 0.00 57 1016.7
20240226050134 34 239 5.0 14.0 0.00 0.00 0.00 57 1016.8
20240226045629 34 219 2.0 10.0 0.00 0.00 0.00 57 1016.4
20240226045127 34 243 3.0 9.0 0.00 0.00 0.00 56 1016.4
20240226044625 34 253 3.0 9.0 0.00 0.00 0.00 57 1016.4
20240226044124 34 258 13.0 13.0 0.00 0.00 0.00 57 1016.5
20240226043622 34 244 10.0 16.0 0.00 0.00 0.00 56 1016.4
20240226043121 34 237 4.0 7.0 0.00 0.00 0.00 56 1016.5
20240226042620 34 243 7.0 11.0 0.00 0.00 0.00 56 1016.5
20240226042119 34 221 5.0 11.0 0.00 0.00 0.00 56 1016.5
20240226041618 34 245 6.0 11.0 0.00 0.00 0.00 55 1016.4
20240226041116 34 228 9.0 11.0 0.00 0.00 0.00 55 1016.7
20240226040614 34 225 0.0 11.0 0.00 0.00 0.00 54 1016.5
20240226040112 34 242 4.0 11.0 0.00 0.00 0.00 54 1016.7
20240226035611 34 235 4.0 9.0 0.00 0.00 0.00 54 1016.7
20240226035110 34 244 3.0 10.0 0.00 0.00 0.00 54 1016.8
20240226034610 34 228 3.0 15.0 0.00 0.00 0.00 54 1016.4
20240226034108 33 231 3.0 6.0 0.00 0.00 0.00 56 1016.5
20240226033607 33 237 2.0 9.0 0.00 0.00 0.00 55 1016.8
20240226033105 33 233 0.0 5.0 0.00 0.00 0.00 56 1016.7
20240226032603 33 240 4.0 6.0 0.00 0.00 0.00 55 1016.9
20240226032100 33 257 3.0 6.0 0.00 0.00 0.00 55 1016.7
20240226031559 33 240 4.0 11.0 0.00 0.00 0.00 55 1016.8
20240226031057 33 224 3.0 7.0 0.00 0.00 0.00 55 1016.9
20240226030555 33 254 3.0 8.0 0.00 0.00 0.00 54 1016.8
20240226030054 33 220 4.0 6.0 0.00 0.00 0.00 54 1016.5
20240226025552 33 218 0.0 11.0 0.00 0.00 0.00 54 1016.7
20240226025051 33 239 6.0 10.0 0.00 0.00 0.00 54 1016.9
20240226024549 33 207 3.0 11.0 0.00 0.00 0.00 54 1016.7
20240226024046 33 220 4.0 9.0 0.00 0.00 0.00 54 1016.9
20240226023544 33 227 2.0 5.0 0.00 0.00 0.00 55 1017.0
20240226023044 33 233 5.0 9.0 0.00 0.00 0.00 53 1017.1
20240226022542 33 250 4.0 9.0 0.00 0.00 0.00 53 1017.2
20240226022038 33 199 1.0 5.0 0.00 0.00 0.00 53 1017.0
20240226021536 33 227 2.0 4.0 0.00 0.00 0.00 53 1017.1
20240226021035 33 209 0.0 4.0 0.00 0.00 0.00 53 1017.1
20240226020534 33 274 1.0 4.0 0.00 0.00 0.00 53 1017.3
20240226020033 33 221 3.0 4.0 0.00 0.00 0.00 53 1017.5
20240226015532 33 209 3.0 8.0 0.00 0.00 0.00 53 1017.5
20240226015031 33 133 1.0 4.0 0.00 0.00 0.00 53 1017.1
20240226014530 33 249 3.0 3.0 0.00 0.00 0.00 54 1017.5
20240226014029 33 282 0.0 3.0 0.00 0.00 0.00 53 1017.4
20240226013528 33 183 1.0 3.0 0.00 0.00 0.00 54 1017.5
20240226013027 33 253 1.0 5.0 0.00 0.00 0.00 53 1017.5
20240226012527 33 139 0.0 5.0 0.00 0.00 0.00 53 1017.4
20240226012026 33 252 0.0 4.0 0.00 0.00 0.00 53 1017.5
20240226011525 33 172 0.0 6.0 0.00 0.00 0.00 52 1017.5
20240226011024 33 239 4.0 5.0 0.00 0.00 0.00 52 1017.5
20240226010523 33 252 3.0 8.0 0.00 0.00 0.00 51 1017.3
20240226010022 33 217 1.0 3.0 0.00 0.00 0.00 52 1017.3
20240226005522 33 188 1.0 3.0 0.00 0.00 0.00 52 1017.4
20240226005021 34 230 5.0 7.0 0.00 0.00 0.00 51 1017.2
20240226004520 34 238 4.0 7.0 0.00 0.00 0.00 51 1017.3
20240226004019 34 225 0.0 6.0 0.00 0.00 0.00 51 1017.6
20240226003517 34 242 2.0 7.0 0.00 0.00 0.00 50 1017.5
20240226003016 34 211 2.0 9.0 0.00 0.00 0.00 49 1017.4
20240226002515 35 225 2.0 8.0 0.00 0.00 0.00 49 1017.5
20240226002015 35 199 4.0 13.0 0.00 0.00 0.00 48 1017.2
20240226001514 35 137 4.0 16.0 0.00 0.00 0.00 48 1017.5
20240226001013 35 251 10.0 10.0 0.00 0.00 0.00 48 1017.3
20240226000513 34 188 4.0 10.0 0.00 0.00 0.00 49 1017.3
20240226000012 35 183 1.0 11.0 0.00 0.00 0.00 48 1017.5
20240225235510 35 238 6.0 12.0 0.00 0.00 0.00 46 1017.4
20240225235010 35 170 1.0 7.0 0.00 0.00 0.00 47 1017.3
20240225234508 35 215 2.0 9.0 0.00 0.00 0.00 46 1017.4
20240225234007 35 179 7.0 9.0 0.00 0.00 0.00 46 1017.2
20240225233506 36 184 7.0 12.0 0.00 0.00 0.00 46 1016.9
20240225233003 36 229 2.0 9.0 0.00 0.00 0.00 46 1017.1
20240225232503 36 129 1.0 11.0 0.00 0.00 0.00 44 1016.9
20240225232002 36 182 5.0 9.0 0.00 0.00 0.00 45 1016.5
20240225231501 37 146 2.0 14.0 0.00 0.00 0.00 44 1016.7
20240225231000 37 183 3.0 9.0 0.00 0.00 0.00 43 1016.8
20240225230459 37 158 3.0 11.0 0.00 0.00 0.00 43 1016.5
20240225225958 37 150 1.0 15.0 0.00 0.00 0.00 43 1016.8
20240225225459 37 171 4.0 11.0 0.00 0.00 0.00 41 1016.5
20240225224958 38 169 1.0 8.0 0.00 0.00 0.00 40 1016.7
20240225224457 38 227 5.0 11.0 0.00 0.00 0.00 38 1016.9
20240225223956 38 220 2.0 7.0 0.00 0.00 0.00 39 1016.9
20240225223454 39 149 0.0 10.0 0.00 0.00 0.00 38 1016.9
20240225222952 39 235 4.0 13.0 0.00 0.00 0.00 38 1017.0
20240225222451 39 160 3.0 9.0 0.00 0.00 0.00 38 1017.1
20240225221950 40 123 4.0 13.0 0.00 0.00 0.00 39 1017.1
20240225221449 40 242 6.0 17.0 0.00 0.00 0.00 37 1016.9
20240225220948 41 143 6.0 9.0 0.00 0.00 0.00 36 1017.0
20240225220448 41 227 2.0 10.0 0.00 0.00 0.00 36 1016.7
20240225215948 42 253 11.0 14.0 0.00 0.00 0.00 34 1016.9
20240225215448 42 244 17.0 17.0 0.00 0.00 0.00 35 1016.9
20240225214947 42 185 3.0 15.0 0.00 0.00 0.00 35 1016.8
20240225214445 42 236 8.0 16.0 0.00 0.00 0.00 33 1016.8
20240225213943 42 267 4.0 8.0 0.00 0.00 0.00 34 1016.9
20240225213442 42 263 5.0 9.0 0.00 0.00 0.00 33 1016.8
20240225212941 44 244 3.0 13.0 0.00 0.00 0.00 33 1016.8
20240225212440 44 241 3.0 9.0 0.00 0.00 0.00 32 1016.8
20240225211938 44 250 6.0 7.0 0.00 0.00 0.00 32 1016.8
20240225211437 44 229 3.0 10.0 0.00 0.00 0.00 32 1017.0
20240225210937 44 276 4.0 10.0 0.00 0.00 0.00 32 1017.1
20240225210436 43 243 5.0 12.0 0.00 0.00 0.00 33 1017.0
20240225205933 44 260 0.0 7.0 0.00 0.00 0.00 35 1017.0
20240225205432 41 233 2.0 6.0 0.00 0.00 0.00 35 1017.0
20240225204930 43 242 7.0 13.0 0.00 0.00 0.00 33 1017.2
20240225204429 43 256 6.0 9.0 0.00 0.00 0.00 32 1017.1
20240225203926 43 235 5.0 14.0 0.00 0.00 0.00 32 1017.0
20240225203425 43 219 5.0 16.0 0.00 0.00 0.00 32 1017.3
20240225202925 44 212 4.0 10.0 0.00 0.00 0.00 33 1017.3
20240225202423 44 279 1.0 9.0 0.00 0.00 0.00 34 1017.3
20240225201919 43 256 3.0 9.0 0.00 0.00 0.00 35 1017.4
20240225201414 43 178 3.0 6.0 0.00 0.00 0.00 36 1017.5
20240225200913 43 238 5.0 8.0 0.00 0.00 0.00 35 1017.5
20240225200412 43 303 3.0 9.0 0.00 0.00 0.00 35 1017.7
20240225195909 42 268 4.0 11.0 0.00 0.00 0.00 34 1017.4
20240225195408 44 250 4.0 10.0 0.00 0.00 0.00 34 1017.8
20240225194907 42 259 3.0 11.0 0.00 0.00 0.00 35 1017.9
20240225194406 42 224 3.0 10.0 0.00 0.00 0.00 35 1017.9
20240225193904 41 257 3.0 12.0 0.00 0.00 0.00 37 1017.7
20240225193402 42 251 5.0 6.0 0.00 0.00 0.00 35 1017.7
20240225192901 41 284 0.0 12.0 0.00 0.00 0.00 37 1017.7
20240225192400 40 248 9.0 14.0 0.00 0.00 0.00 35 1017.7
20240225191900 41 249 6.0 9.0 0.00 0.00 0.00 35 1018.0
20240225191358 41 246 4.0 10.0 0.00 0.00 0.00 36 1017.8
20240225190858 40 207 5.0 12.0 0.00 0.00 0.00 36 1017.9
20240225190355 40 176 4.0 13.0 0.00 0.00 0.00 36 1017.9
20240225185854 39 243 5.0 13.0 0.00 0.00 0.00 37 1017.9
20240225185353 39 252 4.0 17.0 0.00 0.00 0.00 36 1018.1
20240225184852 39 255 4.0 11.0 0.00 0.00 0.00 38 1018.0
20240225184351 38 255 4.0 11.0 0.00 0.00 0.00 37 1018.1
20240225183849 39 301 2.0 12.0 0.00 0.00 0.00 38 1018.5
20240225183349 38 256 4.0 12.0 0.00 0.00 0.00 38 1018.3
20240225182848 37 247 8.0 11.0 0.00 0.00 0.00 37 1018.6
20240225182346 38 251 3.0 10.0 0.00 0.00 0.00 37 1018.8
20240225181845 37 239 3.0 11.0 0.00 0.00 0.00 36 1018.9
20240225181345 38 249 14.0 17.0 0.00 0.00 0.00 36 1018.7
20240225180843 37 265 2.0 12.0 0.00 0.00 0.00 36 1018.9
20240225180341 37 245 1.0 11.0 0.00 0.00 0.00 37 1018.7
20240225175839 38 239 5.0 13.0 0.00 0.00 0.00 36 1019.4
20240225175337 35 238 3.0 11.0 0.00 0.00 0.00 38 1019.1
20240225174835 35 238 4.0 15.0 0.00 0.00 0.00 38 1019.3
20240225174333 36 256 13.0 15.0 0.00 0.00 0.00 37 1019.3
20240225173831 36 221 2.0 13.0 0.00 0.00 0.00 40 1019.5
20240225173330 35 217 6.0 11.0 0.00 0.00 0.00 39 1019.5
20240225172829 35 262 2.0 14.0 0.00 0.00 0.00 42 1019.6
20240225172328 33 251 5.0 12.0 0.00 0.00 0.00 42 1019.6
20240225171826 35 239 2.0 12.0 0.00 0.00 0.00 40 1019.8
20240225171326 36 188 2.0 7.0 0.00 0.00 0.00 42 1020.0
20240225170824 33 210 5.0 16.0 0.00 0.00 0.00 41 1020.2
20240225170322 32 250 5.0 12.0 0.00 0.00 0.00 41 1020.2
20240225165821 32 243 9.0 12.0 0.00 0.00 0.00 42 1020.3
20240225165319 32 196 2.0 13.0 0.00 0.00 0.00 43 1020.4
20240225150353 26 135 0.0 3.0 0.00 0.00 0.00 55 1021.3
20240225145851 26 117 1.0 7.0 0.00 0.00 0.00 56 1021.3
20240225145350 25 236 3.0 7.0 0.00 0.00 0.00 55 1021.5
20240225144848 26 243 3.0 6.0 0.00 0.00 0.00 55 1021.4
20240225144348 26 204 2.0 5.0 0.00 0.00 0.00 58 1021.5
20240225143846 24 198 2.0 4.0 0.00 0.00 0.00 57 1021.6
20240225143345 25 267 3.0 4.0 0.00 0.00 0.00 57 1021.6
20240225142843 24 116 3.0 5.0 0.00 0.00 0.00 62 1021.7
20240225142343 23 204 1.0 5.0 0.00 0.00 0.00 60 1021.8
20240225141842 22 230 2.0 3.0 0.00 0.00 0.00 64 1021.7
20240225141340 22 207 1.0 5.0 0.00 0.00 0.00 64 1021.8
20240225140840 21 247 1.0 6.0 0.00 0.00 0.00 64 1021.9
20240225140338 22 282 1.0 9.0 0.00 0.00 0.00 65 1021.8
20240225135836 20 256 1.0 8.0 0.00 0.00 0.00 69 1021.9
20240225135335 20 253 4.0 7.0 0.00 0.00 0.00 67 1021.7
20240225134834 20 253 2.0 6.0 0.00 0.00 0.00 66 1021.9
20240225134334 19 280 1.0 8.0 0.00 0.00 0.00 70 1021.9
20240225133832 18 294 4.0 9.0 0.00 0.00 0.00 73 1021.9
20240225133331 18 234 5.0 7.0 0.00 0.00 0.00 71 1021.6
20240225132830 17 261 3.0 8.0 0.00 0.00 0.00 72 1021.6
20240225132329 17 224 2.0 5.0 0.00 0.00 0.00 75 1021.8
20240225131827 17 303 2.0 5.0 0.00 0.00 0.00 75 1021.6
20240225131326 16 303 3.0 5.0 0.00 0.00 0.00 75 1021.6
20240225130825 16 276 3.0 5.0 0.00 0.00 0.00 78 1021.7
20240225130323 16 261 1.0 6.0 0.00 0.00 0.00 78 1021.5
20240225125821 16 3 2.0 4.0 0.00 0.00 0.00 80 1021.3
20240225125320 16 293 2.0 5.0 0.00 0.00 0.00 82 1021.3
20240225124819 15 329 2.0 3.0 0.00 0.00 0.00 83 1021.3
20240225124317 14 338 2.0 5.0 0.00 0.00 0.00 84 1021.2
20240225123815 13 359 2.0 5.0 0.00 0.00 0.00 84 1021.0
20240225123313 13 324 4.0 7.0 0.00 0.00 0.00 84 1021.0
20240225122812 13 6 2.0 5.0 0.00 0.00 0.00 84 1021.2
20240225122311 13 334 2.0 5.0 0.00 0.00 0.00 83 1021.1
20240225121809 13 320 0.0 5.0 0.00 0.00 0.00 82 1021.1
20240225121307 14 325 3.0 4.0 0.00 0.00 0.00 84 1020.8
20240225120805 13 1 2.0 5.0 0.00 0.00 0.00 83 1021.0
20240225120304 13 320 2.0 5.0 0.00 0.00 0.00 82 1020.9
20240225115803 13 352 2.0 5.0 0.00 0.00 0.00 82 1020.8
20240225115306 13 14 2.0 4.0 0.00 0.00 0.00 82 1020.8
20240225114800 13 7 2.0 5.0 0.00 0.00 0.00 82 1020.8
20240225114258 13 356 3.0 6.0 0.00 0.00 0.00 82 1020.6
20240225113756 13 2 3.0 6.0 0.00 0.00 0.00 82 1020.5
20240225113254 13 43 1.0 4.0 0.00 0.00 0.00 82 1020.5
20240225112752 13 17 2.0 5.0 0.00 0.00 0.00 82 1020.5
20240225112251 13 15 4.0 6.0 0.00 0.00 0.00 83 1020.4
20240225111750 13 26 4.0 5.0 0.00 0.00 0.00 83 1020.6
20240225111225 13 351 3.0 4.0 0.00 0.00 0.00 83 1020.5
20240225110723 13 357 2.0 5.0 0.00 0.00 0.00 83 1020.5
20240225110222 13 350 1.0 5.0 0.00 0.00 0.00 83 1020.4
20240225105722 13 351 3.0 5.0 0.00 0.00 0.00 83 1020.5
20240225105220 13 48 2.0 6.0 0.00 0.00 0.00 83 1020.4
20240225104720 13 29 3.0 5.0 0.00 0.00 0.00 83 1020.7
20240225104218 13 18 3.0 5.0 0.00 0.00 0.00 83 1020.7
20240225103717 13 359 2.0 6.0 0.00 0.00 0.00 84 1020.5
20240225103217 13 47 2.0 5.0 0.00 0.00 0.00 84 1020.6
20240225102715 14 308 1.0 5.0 0.00 0.00 0.00 84 1020.8
20240225102213 13 348 3.0 6.0 0.00 0.00 0.00 83 1020.7
20240225101713 13 33 4.0 5.0 0.00 0.00 0.00 83 1020.5
20240225101210 13 29 3.0 5.0 0.00 0.00 0.00 83 1020.7
20240225100709 13 341 2.0 4.0 0.00 0.00 0.00 83 1020.6
20240225100209 13 39 3.0 6.0 0.00 0.00 0.00 83 1020.6
20240225095706 13 19 3.0 6.0 0.00 0.00 0.00 82 1020.3
20240225095205 13 354 3.0 5.0 0.00 0.00 0.00 82 1020.3
20240225094703 13 49 3.0 4.0 0.00 0.00 0.00 82 1020.3
20240225094202 13 37 2.0 5.0 0.00 0.00 0.00 81 1020.3
20240225093700 14 16 3.0 6.0 0.00 0.00 0.00 81 1020.1
20240225093159 14 1 3.0 5.0 0.00 0.00 0.00 80 1020.2
20240225092658 14 337 3.0 6.0 0.00 0.00 0.00 80 1020.1
20240225092158 14 340 1.0 6.0 0.00 0.00 0.00 80 1020.2
20240225091657 14 48 4.0 5.0 0.00 0.00 0.00 80 1020.0
20240225091154 14 63 2.0 4.0 0.00 0.00 0.00 80 1020.0
20240225090652 14 34 3.0 5.0 0.00 0.00 0.00 80 1020.1
20240225090151 14 24 0.0 5.0 0.00 0.00 0.00 79 1019.8
20240225085650 14 20 2.0 6.0 0.00 0.00 0.00 79 1020.0
20240225085150 14 24 3.0 6.0 0.00 0.00 0.00 79 1020.1
20240225084649 14 359 3.0 5.0 0.00 0.00 0.00 79 1020.1
20240225084148 14 4 3.0 4.0 0.00 0.00 0.00 79 1020.2
20240225083647 14 359 2.0 6.0 0.00 0.00 0.00 79 1020.2
20240225083144 14 7 3.0 5.0 0.00 0.00 0.00 78 1020.2
20240225082641 14 312 3.0 6.0 0.00 0.00 0.00 78 1020.1
20240225082140 14 335 2.0 6.0 0.00 0.00 0.00 78 1019.8
20240225081638 14 6 2.0 6.0 0.00 0.00 0.00 78 1019.7
20240225081136 14 307 3.0 5.0 0.00 0.00 0.00 78 1019.8
20240225080635 14 291 5.0 6.0 0.00 0.00 0.00 78 1019.8
20240225080134 14 308 3.0 5.0 0.00 0.00 0.00 78 1019.6
20240225075633 14 328 3.0 5.0 0.00 0.00 0.00 77 1019.6
20240225075132 14 285 3.0 5.0 0.00 0.00 0.00 76 1019.4
20240225074631 15 41 1.0 4.0 0.00 0.00 0.00 75 1019.4
20240225074130 15 348 2.0 7.0 0.00 0.00 0.00 74 1019.7
20240225073628 15 348 2.0 7.0 0.00 0.00 0.00 75 1019.5
20240225073126 15 354 4.0 5.0 0.00 0.00 0.00 76 1019.5
20240225072624 15 355 3.0 4.0 0.00 0.00 0.00 76 1019.4
20240225072123 15 335 2.0 6.0 0.00 0.00 0.00 76 1019.4
20240225071622 15 5 3.0 4.0 0.00 0.00 0.00 75 1019.2
20240225071121 15 319 2.0 5.0 0.00 0.00 0.00 75 1019.2
20240225070620 15 37 2.0 5.0 0.00 0.00 0.00 75 1019.3
20240225070119 15 351 2.0 5.0 0.00 0.00 0.00 74 1019.3
20240225065617 15 12 2.0 5.0 0.00 0.00 0.00 73 1019.2
20240225065116 15 351 3.0 5.0 0.00 0.00 0.00 72 1019.3
20240225064614 15 351 2.0 5.0 0.00 0.00 0.00 72 1019.3
20240225064113 15 340 2.0 5.0 0.00 0.00 0.00 70 1019.4
20240225063612 15 278 3.0 6.0 0.00 0.00 0.00 70 1019.1
20240225063112 15 339 4.0 5.0 0.00 0.00 0.00 70 1019.2
20240225062610 16 321 3.0 5.0 0.00 0.00 0.00 69 1019.1
20240225062109 16 338 3.0 4.0 0.00 0.00 0.00 68 1019.2
20240225061607 16 341 2.0 5.0 0.00 0.00 0.00 69 1019.0
20240225061107 15 332 2.0 5.0 0.00 0.00 0.00 70 1018.8
20240225060607 15 355 2.0 4.0 0.00 0.00 0.00 72 1018.9
20240225060105 15 17 2.0 4.0 0.00 0.00 0.00 71 1018.9
20240225055604 16 326 4.0 4.0 0.00 0.00 0.00 71 1018.7
20240225055103 16 333 3.0 6.0 0.00 0.00 0.00 68 1018.7
20240225054603 16 324 3.0 5.0 0.00 0.00 0.00 67 1018.8